Location: Cantaing
(50.1487°N, 3.1675°E)
Time: 15:50:28
(UTC+00:00)

Cosmos 2181 Rocket - Pass Details

Date: 14 January 2026
Orbit: 952 x 1013 km, 82.9° (Epoch: 18 February)

Event Time Altitude Azimuth Distance (km) Brightness Sun altitude
Rises 04:41:18 0° 351° (N) 3,711 7.0 -28.1°
Reaches altitude 10° 04:43:50 10° 354° (N) 2,767 6.3 -27.7°
Maximum altitude 04:50:11 69° 78° (ENE) 1,071 4.3 -26.7°
Drops below altitude 10° 04:56:34 10° 162° (SSE) 2,782 6.6 -25.6°
Sets 04:59:07 0° 164° (SSE) 3,732 7.3 -25.2°
